Flag for Netherlands Weather past 2 weeks in Leiden, Netherlands

Now
55 °F

Cool.


Feels Like: 55 °F
Forecast: 63 / 84 °F
Wind: 1 mph from North

Location: Rotterdam Zestienhoven Airport

Current Time: Jun 30, 2015 at 2:19:11 AM

Latest Report: Jun 30, 2015 at 1:55 AM


Visibility: N/A

Pressure: 30.21 "Hg

Humidity: 94%

Dew point: 54 °F

Location of LeidenLocation

Historic Weather in Leiden — Graph

°F

Leiden temperature yesterday

Maximum temperature yesterday: 72 °F (at 12:25 PM)
Minimum temperature yesterday: 55 °F (at 11:55 PM)
Average temperature yesterday: 65 °F

Past Weeks' High & Low Weather Summary

 TemperatureHumidityPressure
High77 °F (Jun 26, 5:25 PM)100% (Jun 16, 4:55 AM)30.30 "Hg (Jun 16, 4:55 AM)
Low43 °F (Jun 16, 4:25 AM)38% (Jun 26, 12:55 PM)29.71 "Hg (Jun 22, 5:25 PM)
Average60 °F74%30.08 "Hg
* Reported Jun 15 12:25 AM — Jun 30 12:55 AM, Leiden, Weather by CustomWeather, © 2015

Note: Actual official high and low records may vary slightly from our data, if they occured in-between our weather recording intervals... More about our weather records

Advertising

Leiden weather history for previous 24 hours

 ConditionsComfort  
Time TempWeatherWind HumidityBarometerVisibility
12:55 AM
Tue, Jun 30
55 °FCool.1 mph94%30.21 "HgN/A
12:25 AM57 °FCool.1 mph88%30.21 "HgN/A
11:55 PM
Mon, Jun 29
55 °FCool.1 mph94%30.21 "HgN/A
11:25 PM57 °FClear.2 mph82%30.21 "HgN/A
10:55 PM59 °FCool.2 mph77%30.21 "HgN/A
10:25 PM61 °FCool.3 mph68%30.21 "HgN/A
9:55 PM64 °FMild.3 mph60%30.18 "HgN/A
9:25 PM64 °FClear.5 mph64%30.21 "HgN/A
8:55 PM66 °FMild.5 mph60%30.21 "HgN/A
8:25 PM68 °FClear.6 mph56%30.18 "HgN/A
7:55 PM68 °FClear.6 mph56%30.18 "HgN/A
7:25 PM68 °FClear.7 mph56%30.18 "HgN/A
6:55 PM70 °FClear.8 mph57%30.18 "HgN/A
6:25 PM70 °FClear.6 mph57%30.18 "HgN/A
5:55 PM70 °FClear.7 mph53%30.18 "HgN/A
5:25 PM72 °FClear.6 mph53%30.18 "HgN/A
4:55 PM72 °FClear.7 mph53%30.18 "HgN/A
4:25 PM72 °FClear.7 mph57%30.18 "HgN/A
3:55 PM70 °FClear.8 mph60%30.18 "HgN/A
3:25 PM72 °FPassing clouds.8 mph61%30.18 "HgN/A
2:55 PM72 °FPassing clouds.9 mph65%30.18 "HgN/A
2:25 PM72 °FClear.9 mph61%30.18 "HgN/A
1:55 PM72 °FScattered clouds.8 mph61%30.18 "HgN/A
1:25 PM70 °FPassing clouds.10 mph60%30.18 "HgN/A
12:55 PM72 °FScattered clouds.10 mph57%30.15 "HgN/A
12:25 PM72 °FMild.10 mph53%30.15 "HgN/A
11:55 AM70 °FClear.10 mph57%30.15 "HgN/A
11:25 AM70 °FPassing clouds.9 mph64%30.15 "HgN/A
10:55 AM68 °FPassing clouds.7 mph69%30.15 "HgN/A
10:25 AM68 °FMild.6 mph69%30.15 "HgN/A
9:55 AM66 °FClear.5 mph73%30.15 "HgN/A
9:25 AM66 °FMild.5 mph78%30.12 "HgN/A
8:55 AM64 °FClear.3 mph83%30.12 "HgN/A
8:25 AM64 °FClear.5 mph83%30.12 "HgN/A
7:55 AM63 °FClear.5 mph83%30.12 "HgN/A
7:25 AM63 °FClear.3 mph88%30.12 "HgN/A
6:55 AM61 °FClear.6 mph88%30.09 "HgN/A
6:25 AM59 °FClear.5 mph94%30.09 "HgN/A
5:55 AM57 °FPassing clouds.5 mph94%30.09 "Hg5 mi
5:25 AM57 °FClear.5 mph94%30.09 "Hg5 mi
4:55 AM57 °FClear.5 mph94%30.09 "Hg5 mi
4:25 AM57 °FPassing clouds.6 mph94%30.09 "HgN/A
3:55 AM57 °FCool.6 mph94%30.09 "HgN/A
2:55 AM59 °FClear.6 mph88%30.09 "HgN/A
2:25 AM61 °FClear.5 mph83%30.09 "HgN/A
Weather by CustomWeather, © 2015

See weather overviewHow to use our weather pages